Location: Goven
(48.0064°N, 1.8463°W)
Time: 11:34:31
(UTC+00:00)

Daily predictions for brighter satellites

Satellite Brightness Start Highest point End
(mag) Time Altitude Azimuth Time Altitude Azimuth Time Altitude Azimuth
Cosmos 1743 Rocket 4.5 20:30:17 10° N 20:34:20 34° ENE 20:38:23 10° SE
USA 32 4.2 20:30:20 10° S 20:35:33 82° W 20:40:49 10° N
Cosmos 2369 Rocket 3.8 20:31:48 10° NW 20:36:40 32° WSW 20:41:32 10° SSW
Cosmos 1603 3.7 20:33:23 10° SSW 20:39:03 78° ESE 20:44:48 10° NNE
SeaSat 1 3.6 20:34:56 10° S 20:39:30 39° WSW 20:44:06 10° NW
Okean 1 3.6 20:36:46 10° SSE 20:40:28 45° E 20:44:12 10° NNE
Cosmos 1408 Rocket 3.7 20:36:13 10° N 20:40:41 67° E 20:45:05 10° SSE
Centaur D AC-29 4.2 20:37:31 10° S 20:42:03 17° SE 20:52:04 10° ESE
ARGOS Delta rocket 4.1 20:39:39 10° SSE 20:44:23 54° ENE 20:48:55 10° N
Cosmos 1151 Rocket 4.1 20:43:54 10° SSE 20:47:36 28° E 20:51:18 10° NNE
Cosmos 1975 4.4 20:47:41 10° NNE 20:50:44 21° ENE 20:53:44 10° ESE
Cosmos 1302 Rocket 4.0 20:53:07 10° NNW 20:58:21 82° ENE 21:03:31 10° SSE
MOS 1 Rocket 4.1 20:54:09 10° SE 20:59:09 46° ENE 21:04:17 10° N
USA 281 4.1 20:54:37 10° ESE 21:00:38 40° NE 21:06:41 10° NNW
NOSS 3-3 (A) 4.3 20:57:20 10° S 21:02:11 35° ESE 21:07:40 10° NE
Meteor 1-19 Rocket 4.3 20:59:53 10° S 21:05:40 68° E 21:11:17 10° NNE
Cosmos 1536 3.2 21:01:51 10° NNW 21:05:43 62° W 21:09:36 10° S
NOSS 2-1 (C) 3.6 21:03:47 10° NW 21:07:38 84° SW 21:12:16 13° SE
Cosmos 1943 4.5 21:03:09 10° SW 21:08:34 46° NW 21:14:01 10° NNE
Cosmos 1340 2.3 21:06:12 10° N 21:09:36 74° ENE 21:12:29 13° SSE
Landsat 4 3.5 21:09:33 13° SSE 21:12:32 69° ENE 21:16:01 10° N
Molniya-1 4.5 21:09:25 10° S 21:12:54 46° ESE 21:21:35 10° NE
Okean-O 4.1 21:11:29 10° SSW 21:15:30 34° W 21:19:33 10° NNW
Meteor 2-10 4.2 21:10:26 10° NNW 21:15:55 80° W 21:21:09 10° S
USA 245 2.1 21:14:21 16° S 21:16:05 77° WSW 21:18:44 10° NNW
Nadezhda 4 Rocket 4.0 21:10:32 10° S 21:16:40 69° E 21:22:55 10° NNE
Spot 2 Rocket 3.5 21:12:30 12° SSE 21:17:12 77° ENE 21:22:16 10° NNW
Cosmos 1500 Rocket 3.7 21:12:56 10° NNW 21:17:14 70° W 21:21:30 10° S
Cosmos 1626 3.3 21:17:57 16° ESE 21:19:16 20° E 21:21:43 10° NE
Meteor 1-11 Rocket 4.3 21:15:18 10° NNW 21:20:55 59° W 21:26:38 10° S
SPOT 5 3.6 21:18:05 10° S 21:22:21 44° W 21:26:31 10° NNW
Cosmos 1726 4.1 21:21:18 10° NW 21:23:39 20° W 21:25:59 10° SW
Sich 1 3.3 21:20:27 10° NNW 21:24:49 70° W 21:28:59 11° S
Cosmos 1697 Rocket 3.8 21:21:21 10° NNW 21:26:28 34° NE 21:31:08 12° ESE
BREEZE-M DEB (TANK) 3.6 21:13:31 10° SW 21:26:28 53° SSE 21:30:04 10° ENE
Cosmos 1805 Rocket 3.9 21:24:30 10° NNW 21:28:53 64° W 21:33:05 11° S
Cosmos 1733 3.5 21:27:10 10° NNW 21:30:36 55° W 21:33:38 13° S
Cosmos 1633 Rocket 3.7 21:27:53 10° N 21:32:05 41° ENE 21:34:53 19° SE
NOSS 3-3 (C) 3.8 21:30:26 10° SSW 21:35:40 56° ESE 21:41:48 10° NE
Cosmos 1980 Rocket 3.9 21:31:48 10° N 21:36:21 24° NE 21:40:53 10° E
Cosmos 1666 Rocket 3.7 21:33:50 10° N 21:38:05 56° ENE 21:40:51 20° SSE
Lacrosse 5 rocket 3.3 21:35:01 10° NW 21:38:43 28° NNE 21:42:19 10° ENE
SL-8 R/B 3.6 21:34:04 10° W 21:38:50 89° SW 21:43:37 10° E
Ariane Rocket 3.2 21:36:07 14° S 21:40:31 71° WSW 21:45:37 10° NNW
Cosmos 44 Rocket 3.9 21:37:23 10° NNW 21:42:13 50° NE 21:45:49 16° ESE
IRIDIUM 114 4.5 21:37:05 10° N 21:42:16 59° E 21:45:54 19° SSE
Cosmos 1674 4.3 21:44:53 16° ESE 21:45:36 17° E 21:47:54 10° NE
IRIDIUM 103 4.3 21:46:12 10° N 21:51:26 71° E 21:55:02 20° SSE
Meteor 2-4 Rocket 3.8 21:46:32 12° S 21:51:57 76° E 21:57:54 10° NNE
ERS-1 Rocket 4.0 21:48:12 10° SSW 21:52:55 40° W 21:57:41 10° NNW
Cosmos 1340 Rocket 4.0 21:49:30 10° SW 21:53:17 41° WNW 21:57:04 10° N
Cosmos 2026 Rocket 4.0 21:49:43 15° S 21:55:03 72° E 22:01:15 10° NNE
Lacrosse 4 Rocket 1.8 21:51:11 10° NW 21:55:10 52° WSW 21:57:32 23° S
SPOT 3 Rocket 3.9 21:51:13 15° S 21:55:24 58° W 22:00:29 10° NNW
Cosmos 614 Rocket 4.4 21:51:34 10° SSW 21:56:44 66° WNW 22:01:57 10° NNE
Spot 1 3.9 21:53:30 10° NNE 21:57:40 83° ESE 22:01:02 16° SSW
Cosmos 1818 3.6 21:53:50 10° SW 21:59:18 85° NW 22:04:49 10° NE
USA 59 Rocket 1.4 21:59:50 10° WNW 22:03:38 34° SW 22:06:48 19° S
Cosmos 1607 4.3 21:58:33 13° S 22:04:04 47° ESE 22:10:14 10° NE
H-2A R/B 4.2 22:01:54 15° ESE 22:04:11 23° ENE 22:07:36 10° N
Cosmos 1805 4.0 22:01:18 10° NNW 22:04:50 43° W 22:07:13 18° SSW
Terra 3.1 22:02:56 11° SSW 22:07:01 33° W 22:11:17 10° NNW
Cosmos 1766 3.3 22:04:18 10° N 22:08:02 60° E 22:09:34 32° SE
Cosmos 1627 Rocket 4.5 22:03:59 15° S 22:09:23 88° E 22:15:41 10° N
IRIDIUM 106 4.4 22:04:30 10° N 22:09:45 82° W 22:13:18 21° S
Cosmos 1833 Rocket 2.7 22:07:45 18° S 22:11:54 58° ESE 22:17:25 10° NE
Cosmos 1656 4.1 22:09:52 10° NW 22:15:10 52° WSW 22:18:33 22° S
Cosmos 1269 Rocket 4.1 22:12:57 10° SSW 22:18:13 81° WNW 22:23:32 10° NNE
Cosmos 1470 3.3 22:18:59 10° N 22:22:30 40° ENE 22:23:37 31° ESE
Landsat 5 3.9 22:20:43 10° N 22:24:25 52° WNW 22:27:17 16° SW
Cosmos 2082 Rocket 3.4 22:23:56 21° SE 22:25:25 24° ESE 22:29:51 10° NE
Cosmos 2251 Rocket 4.3 22:24:49 27° SE 22:26:36 34° ESE 22:31:19 10° NE
Cosmos 1975 4.0 22:23:06 10° NNW 22:26:42 35° W 22:28:58 19° SSW
DELTA 2 R/B (1) 4.1 22:24:39 10° WSW 22:29:40 34° S 22:31:29 28° SE
Cosmos 1553 Rocket 3.9 22:25:37 10° N 22:31:43 82° E 22:35:14 27° SSE
Cosmos 2360 4.4 22:28:19 10° NNW 22:33:58 62° WSW 22:37:00 28° S
Cosmos 1908 3.7 22:35:02 10° N 22:38:26 41° ENE 22:39:14 35° ESE
GEOS 3 Rocket 3.5 22:33:25 10° NE 22:38:36 68° SE 22:42:27 18° SSW
Cosmos 724 4.2 22:34:34 19° SSW 22:38:53 65° ESE 22:44:40 10° NE
ARIANE 5 R/B 2.5 22:40:25 37° SSE 22:42:06 84° ENE 22:46:27 10° NNW
USA 281 3.7 22:41:02 24° S 22:44:59 52° WSW 22:51:25 10° NNW
H-2A R/B 4.3 22:47:11 10° ENE 22:49:02 12° E 22:49:42 12° E
Cosmos 1023 Rocket 4.4 22:48:16 24° SSW 22:51:29 90° WNW 22:56:43 10° NNE
CZ-2C R/B 3.6 22:47:19 10° NNE 22:51:49 89° W 22:53:46 33° SSW
Cosmos 2285 Rocket 4.0 22:48:47 26° S 22:52:27 70° ESE 22:58:47 10° NNE
Cosmos 1626 3.9 22:50:44 14° WSW 22:52:40 23° WNW 22:55:19 10° NNW
Cosmos 1515 Rocket 3.7 22:54:05 32° SSW 22:56:01 69° W 23:00:20 10° N
Cosmos 1140 Rocket 3.5 22:54:16 25° SSW 22:57:26 85° WNW 23:02:40 10° NNE
Spot 4 4.0 22:58:19 35° SE 23:00:14 64° ENE 23:04:58 10° N
BREEZE-M DEB (TANK) 4.0 22:55:48 10° SW 23:00:15 68° SSE 23:18:33 10° ENE
Cosmos 1707 2.4 23:00:27 54° S 23:01:13 90° NW 23:04:53 10° N
Cosmos 1400 Rocket 3.9 23:02:59 28° ESE 23:03:25 28° E 23:06:51 10° NNE
Cosmos 2266 Rocket 4.0 23:02:10 31° S 23:05:14 71° E 23:11:31 10° NNE
PSLV R/B 3.8 23:01:24 10° NNE 23:05:28 81° WNW 23:06:48 41° SSW
Cosmos 1300 4.0 23:02:55 10° NNE 23:05:58 26° ENE 23:06:40 24° E
Cosmos 1869 Rocket 3.5 23:04:18 10° N 23:08:42 78° E 23:10:01 45° SSE
NOSS 3-4 (A) 3.9 23:02:28 10° NW 23:09:20 72° SW 23:13:38 29° SSE
NOSS 3-4 (C) 3.9 23:02:34 10° NW 23:09:26 72° SW 23:13:46 29° SSE
Cosmos 1697 Rocket 3.2 23:05:13 10° NW 23:10:35 46° WSW 23:12:51 30° SSW
Cosmos 2322 Rocket 4.3 23:06:45 10° N 23:11:01 21° NE 23:15:17 10° E
Cosmos 1441 Rocket 2.9 23:08:00 10° N 23:11:36 77° ENE 23:12:05 62° SE
OPS 6432 4.2 23:11:17 10° NW 23:14:23 68° NE 23:14:38 64° E
Meteor 1-15 Rocket 4.2 23:08:51 10° N 23:14:29 73° ENE 23:16:53 35° SSE
In-Cosmos 22 4.2 23:12:54 35° S 23:15:26 73° E 23:21:07 10° NNE
Lacrosse 5 rocket 1.3 23:13:23 10° NW 23:17:36 76° NE 23:19:04 38° ESE
Cosmos 1674 3.8 23:18:27 26° WSW 23:19:37 33° WNW 23:22:50 10° N
Cosmos 2228 Rocket 3.8 23:19:15 35° SE 23:20:16 40° E 23:24:31 10° NNE
Cosmos 1842 4.1 23:19:04 29° WSW 23:20:19 39° WNW 23:23:48 10° N
Cosmos 1980 Rocket 2.2 23:15:17 10° NNW 23:21:00 78° WSW 23:23:21 37° SSE
SL-8 R/B 4.0 23:16:34 10° W 23:21:04 43° SSW 23:21:28 42° SSW
Cosmos 44 Rocket 4.4 23:19:17 10° NW 23:23:27 28° WSW 23:24:27 26° SW
Cosmos 2333 Rocket 4.4 23:22:15 10° N 23:26:31 21° NE 23:30:47 10° E
Cosmos 1356 Rocket 4.4 23:27:09 29° ESE 23:27:43 31° E 23:31:24 10° NNE
Cosmos 540 Rocket 3.5 23:23:13 10° NNW 23:28:25 74° ENE 23:30:29 37° SE
Cosmos 1655 Rocket 4.0 23:26:16 34° S 23:29:15 75° E 23:35:39 10° NNE
USA 234 4.4 23:23:26 10° E 23:29:35 45° NNE 23:35:43 10° WNW
Cosmos 1953 4.4 23:28:00 10° NNE 23:30:37 17° ENE 23:32:08 14° E
Cosmos 1763 Rocket 3.5 23:25:34 10° NNW 23:30:54 80° WSW 23:32:48 40° S
BREEZE-M DEB (TANK) 2.8 23:30:08 10° WNW 23:37:30 10° ESE 23:31:44 45° W
Cosmos 468 Rocket 4.0 23:28:22 10° NNW 23:33:40 76° ENE 23:35:47 37° SE
SL-14 R/B 3.4 23:36:11 50° ESE 23:36:35 53° E 23:40:19 10° NNE
GP-B 3.3 23:32:51 10° N 23:37:13 57° E 23:38:18 44° SE
H-2A R/B 3.3 23:37:54 35° SW 23:38:53 41° W 23:42:58 10° NNW
Cosmos 407 Rocket 4.0 23:36:25 24° SW 23:39:31 58° WNW 23:44:41 10° NNE
Cosmos 1455 4.2 23:39:54 10° NNE 23:42:11 16° ENE 23:43:13 15° E
CZ-3 Stage 3 4.2 23:24:59 10° WSW 23:42:18 29° SSW 23:43:39 28° S
Cosmos 1862 Rocket 3.9 23:42:08 42° SE 23:42:59 49° E 23:47:13 10° NNE
Aureole 3 3.9 23:44:34 32° E 23:44:34 32° E 23:47:14 10° NNE
Cosmos 676 Rocket 4.2 23:44:45 41° SSE 23:46:25 60° ESE 23:51:40 10° NNE
Cosmos 1954 Rocket 4.0 23:45:26 41° S 23:47:17 74° ESE 23:52:36 10° NNE
Cosmos 2369 3.8 23:43:03 10° NNW 23:48:43 63° WSW 23:50:46 39° S
ALOS 2 2.8 23:49:40 45° SSW 23:50:41 58° W 23:55:02 10° NNW
Cosmos 1190 Rocket 4.1 23:51:06 35° SSW 23:53:25 77° WNW 23:58:45 10° NNE
